GW6573 Weather Reports


Display with metric or nautical units.
time (UTC)temp
F
wind
direction
speed
MPH
gust
MPH
rain 1hr
in
rain 24hr
in
rain mn
in
humidity
%
barometer
mb
20260506214628 71 3 6.0 13.0 0.00 0.00 0.00 65 1013.5
20260506214125 70 352 7.0 11.0 0.00 0.00 0.00 67 1013.5
20260506213623 70 352 6.0 9.0 0.00 0.00 0.00 68 1013.5
20260506213120 71 343 10.0 17.0 0.00 0.00 0.00 66 1013.1
20260506212618 73 6 5.0 12.0 0.00 0.00 0.00 64 1013.1
20260506212112 73 351 9.0 12.0 0.00 0.00 0.00 64 1013.1
20260506211608 73 352 8.0 15.0 0.00 0.00 0.00 64 1012.8
20260506211105 74 356 10.0 14.0 0.00 0.00 0.00 63 1012.8
20260506210602 75 351 10.0 15.0 0.00 0.00 0.00 62 1013.1
20260506210058 75 358 6.0 11.0 0.00 0.00 0.00 62 1013.1
20260506205555 75 0 7.0 10.0 0.00 0.00 0.00 63 1013.1
20260506205050 76 7 9.0 12.0 0.00 0.00 0.00 63 1013.1
20260506204549 76 356 6.0 11.0 0.00 0.00 0.00 62 1013.5
20260506204045 75 347 6.0 8.0 0.00 0.00 0.00 64 1013.5
20260506203544 74 352 8.0 10.0 0.00 0.00 0.00 67 1013.5
20260506203040 74 351 8.0 13.0 0.00 0.00 0.00 67 1013.5
20260506202537 74 356 9.0 12.0 0.00 0.00 0.00 69 1013.5
20260506202033 74 358 4.0 8.0 0.00 0.00 0.00 69 1013.5
20260506201531 73 1 7.0 9.0 0.00 0.00 0.00 70 1013.5
20260506201027 73 343 8.0 13.0 0.00 0.00 0.00 70 1013.1
20260506200524 75 355 9.0 12.0 0.00 0.00 0.00 69 1013.1
20260506200021 77 333 10.0 16.0 0.00 0.00 0.00 67 1012.8
20260506195518 78 356 4.0 6.0 0.00 0.00 0.00 67 1012.5
20260506195014 78 358 3.0 7.0 0.00 0.00 0.00 67 1012.8
20260506194512 78 24 3.0 6.0 0.00 0.00 0.00 67 1012.8
20260506194008 78 2 4.0 7.0 0.00 0.00 0.00 67 1012.8
20260506193505 78 356 4.0 7.0 0.00 0.00 0.00 67 1012.5
20260506193002 80 349 6.0 13.0 0.00 0.00 0.00 65 1012.5
20260506192459 81 352 4.0 6.0 0.00 0.00 0.00 63 1012.5
20260506191955 81 2 4.0 5.0 0.00 0.00 0.00 63 1012.5
20260506191452 81 3 4.0 5.0 0.00 0.00 0.00 64 1012.8
20260506190948 82 349 7.0 10.0 0.00 0.00 0.00 61 1012.8
20260506190446 83 352 6.0 11.0 0.00 0.00 0.00 59 1012.8
20260506185942 85 334 4.0 7.0 0.00 0.00 0.00 56 1012.8
20260506185439 85 56 0.0 1.0 0.00 0.00 0.00 56 1012.8
20260506184936 83 349 2.0 4.0 0.00 0.00 0.00 59 1012.8
20260506184433 83 347 4.0 8.0 0.00 0.00 0.00 58 1012.8
20260506183930 82 76 1.0 5.0 0.00 0.00 0.00 60 1012.8
20260506183425 81 30 3.0 4.0 0.00 0.00 0.00 60 1012.8
20260506182923 80 46 3.0 4.0 0.00 0.00 0.00 62 1012.8
20260506182420 80 45 2.0 4.0 0.00 0.00 0.00 62 1013.1
20260506181917 80 17 2.0 5.0 0.00 0.00 0.00 63 1012.8
20260506181415 78 349 2.0 3.0 0.00 0.00 0.00 64 1013.1
20260506180912 80 343 3.0 6.0 0.00 0.00 0.00 62 1012.8
20260506180408 78 43 2.0 6.0 0.00 0.00 0.00 65 1012.8
20260506175905 77 0 0.0 2.0 0.00 0.00 0.00 67 1012.8
20260506175401 77 1 1.0 2.0 0.00 0.00 0.00 68 1013.1
20260506174858 75 1 1.0 4.0 0.00 0.00 0.00 71 1013.1
20260506174356 74 13 3.0 6.0 0.00 0.00 0.00 72 1013.1
20260506173853 74 355 3.0 6.0 0.00 0.00 0.00 71 1013.1
20260506173350 74 23 3.0 6.0 0.00 0.00 0.00 71 1013.1
20260506172847 72 9 5.0 7.0 0.00 0.00 0.00 74 1013.5
20260506172344 72 23 3.0 7.0 0.00 0.00 0.00 75 1013.5
20260506171841 71 356 5.0 10.0 0.00 0.00 0.00 76 1013.5
20260506171338 72 358 7.0 10.0 0.00 0.00 0.00 76 1013.5
20260506170836 71 349 3.0 5.0 0.00 0.00 0.00 78 1013.5
20260506170332 70 13 4.0 7.0 0.00 0.00 0.00 80 1013.5
20260506165831 69 30 4.0 7.0 0.00 0.00 0.00 82 1013.5
20260506165329 68 12 5.0 10.0 0.00 0.00 0.00 84 1013.8
20260506164825 67 358 6.0 9.0 0.00 0.00 0.00 86 1013.8
20260506164322 66 356 3.0 4.0 0.00 0.00 0.00 87 1014.1
20260506163819 66 349 4.0 6.0 0.00 0.00 0.00 88 1014.5
20260506163313 66 356 9.0 12.0 0.00 0.00 0.00 88 1014.9
20260506162809 67 351 6.0 10.0 0.00 0.00 0.00 88 1014.9
20260506162308 68 342 6.0 13.0 0.00 0.00 0.00 86 1014.5
20260506161804 78 349 4.0 7.0 0.00 0.00 0.00 85 1013.5
20260506161301 78 59 0.0 0.0 0.00 0.00 0.00 85 1012.8
20260506153051 78 59 0.0 0.0 0.00 0.00 0.00 85 1012.8
20260506152548 78 59 0.0 0.0 0.00 0.00 0.00 85 1012.8
20260506152046 78 59 1.0 3.0 0.00 0.00 0.00 85 1012.8
20260506151544 78 59 0.0 0.0 0.00 0.00 0.00 85 1012.8
20260506151041 78 61 0.0 0.0 0.00 0.00 0.00 86 1012.8
20260506150537 78 61 0.0 0.0 0.00 0.00 0.00 87 1012.5
20260506150034 77 112 2.0 3.0 0.00 0.00 0.00 88 1012.5
20260506145531 77 115 4.0 5.0 0.00 0.00 0.00 88 1012.5
20260506145028 77 113 7.0 9.0 0.00 0.00 0.00 88 1012.1
20260506144525 77 111 6.0 6.0 0.00 0.00 0.00 88 1011.8
20260506144022 77 114 5.0 7.0 0.00 0.00 0.00 88 1012.1
20260506143520 77 118 5.0 6.0 0.00 0.00 0.00 88 1011.8
20260506143018 77 109 7.0 9.0 0.00 0.00 0.00 89 1011.8
20260506142515 77 111 9.0 10.0 0.00 0.00 0.00 89 1011.4
20260506142014 77 111 6.0 8.0 0.00 0.00 0.00 88 1011.8
20260506141511 77 113 7.0 9.0 0.00 0.00 0.00 88 1011.8
20260506141009 77 112 3.0 4.0 0.00 0.00 0.00 88 1012.1
20260506140506 77 74 0.0 0.0 0.00 0.00 0.00 88 1012.1
20260506140004 77 74 0.0 0.0 0.00 0.00 0.00 88 1011.8
20260506135500 77 108 5.0 6.0 0.00 0.00 0.00 89 1011.8
20260506134956 77 95 4.0 7.0 0.00 0.00 0.00 89 1011.4
20260506134452 77 127 4.0 5.0 0.00 0.00 0.00 89 1011.4
20260506133949 77 111 4.0 5.0 0.00 0.00 0.00 89 1011.4
20260506133446 77 128 2.0 3.0 0.00 0.00 0.00 89 1011.4
20260506132943 77 128 4.0 5.0 0.00 0.00 0.00 89 1011.1
20260506132440 76 104 2.0 4.0 0.00 0.00 0.00 90 1011.1
20260506131937 76 63 1.0 2.0 0.00 0.00 0.00 90 1011.4
20260506131434 76 74 2.0 6.0 0.00 0.00 0.00 90 1011.1
20260506130931 76 111 6.0 8.0 0.00 0.00 0.00 90 1011.1
20260506130427 76 110 8.0 10.0 0.00 0.00 0.00 90 1011.1
20260506125925 76 102 6.0 10.0 0.00 0.00 0.00 90 1011.1
20260506125423 76 96 7.0 8.0 0.00 0.00 0.00 90 1011.1
20260506124921 76 106 7.0 8.0 0.00 0.00 0.00 90 1011.1
20260506124418 76 114 7.0 9.0 0.00 0.00 0.00 90 1011.1
20260506123916 76 106 7.0 9.0 0.00 0.00 0.00 90 1011.1
20260506123414 76 110 9.0 10.0 0.00 0.00 0.00 90 1011.1
20260506122911 76 107 8.0 11.0 0.00 0.00 0.00 90 1011.1
20260506122408 76 108 8.0 9.0 0.00 0.00 0.00 90 1011.1
20260506121907 76 96 6.0 9.0 0.00 0.00 0.00 90 1011.1
20260506121403 76 105 6.0 9.0 0.00 0.00 0.00 90 1011.1
20260506120900 76 111 8.0 9.0 0.00 0.00 0.00 90 1011.1
20260506120357 76 99 9.0 11.0 0.00 0.00 0.00 90 1010.8
20260506115855 76 111 6.0 8.0 0.00 0.00 0.00 90 1010.8
20260506115353 76 110 7.0 8.0 0.00 0.00 0.00 90 1010.8
20260506114850 76 117 6.0 7.0 0.00 0.00 0.00 90 1010.8
20260506114348 76 106 6.0 8.0 0.00 0.00 0.00 89 1011.1
20260506113847 76 117 6.0 7.0 0.00 0.00 0.00 89 1010.8
20260506113344 76 104 6.0 8.0 0.00 0.00 0.00 89 1010.8
20260506112840 76 108 6.0 8.0 0.00 0.00 0.00 89 1010.8
20260506112337 76 110 8.0 9.0 0.00 0.00 0.00 89 1010.8
20260506111835 76 109 9.0 11.0 0.00 0.00 0.00 90 1011.1
20260506111333 76 115 6.0 7.0 0.00 0.00 0.00 90 1010.8
20260506110830 76 112 6.0 8.0 0.00 0.00 0.00 90 1010.8
20260506110327 76 112 6.0 7.0 0.00 0.00 0.00 90 1010.8
20260506105824 76 101 5.0 6.0 0.00 0.00 0.00 90 1010.8
20260506105320 76 110 8.0 10.0 0.00 0.00 0.00 90 1010.8
20260506104818 76 104 10.0 12.0 0.00 0.00 0.00 90 1010.8
20260506104316 76 83 4.0 7.0 0.00 0.00 0.00 90 1010.8
20260506103813 76 117 6.0 8.0 0.00 0.00 0.00 90 1010.8
20260506103310 76 120 5.0 6.0 0.00 0.00 0.00 90 1010.8
20260506102808 76 104 6.0 9.0 0.00 0.00 0.00 90 1010.4
20260506102306 76 107 7.0 9.0 0.00 0.00 0.00 90 1010.4
20260506101803 76 111 6.0 7.0 0.00 0.00 0.00 90 1010.4
20260506101258 76 116 7.0 9.0 0.00 0.00 0.00 90 1010.4
20260506100757 76 104 5.0 7.0 0.00 0.00 0.00 90 1010.4
20260506100254 76 136 6.0 12.0 0.00 0.00 0.00 90 1010.1
20260506095753 76 114 9.0 15.0 0.00 0.00 0.00 90 1010.1
20260506095249 76 129 5.0 10.0 0.00 0.00 0.00 90 1010.1
20260506094746 76 111 6.0 10.0 0.00 0.00 0.00 90 1010.1
20260506094244 76 141 11.0 17.0 0.00 0.00 0.00 90 1010.1
20260506093743 76 127 8.0 12.0 0.00 0.00 0.00 90 1010.1
20260506093239 76 110 8.0 13.0 0.00 0.00 0.00 90 1009.7
20260506092737 76 137 8.0 11.0 0.00 0.00 0.00 90 1009.7
20260506092235 76 95 3.0 7.0 0.00 0.00 0.00 90 1009.7
20260506091732 76 144 8.0 12.0 0.00 0.00 0.00 90 1009.7
20260506091229 76 135 8.0 13.0 0.00 0.00 0.00 91 1009.7
20260506090727 76 121 8.0 12.0 0.00 0.00 0.00 91 1009.7
20260506090224 76 111 9.0 11.0 0.00 0.00 0.00 90 1009.7
20260506085721 76 105 8.0 11.0 0.00 0.00 0.00 90 1009.7
20260506085217 76 114 8.0 15.0 0.00 0.00 0.00 90 1009.7
20260506084714 76 115 9.0 11.0 0.00 0.00 0.00 90 1009.7
20260506084210 76 127 8.0 12.0 0.00 0.00 0.00 90 1009.7
20260506083707 76 135 7.0 9.0 0.00 0.00 0.00 90 1009.7
20260506083205 76 107 9.0 13.0 0.00 0.00 0.00 90 1009.7
20260506082702 76 108 9.0 11.0 0.00 0.00 0.00 90 1009.7
20260506082202 76 133 5.0 9.0 0.00 0.00 0.00 90 1009.7
20260506081700 76 113 9.0 11.0 0.00 0.00 0.00 90 1009.7
20260506081158 76 114 9.0 12.0 0.00 0.00 0.00 90 1009.7
20260506080655 76 110 10.0 13.0 0.00 0.00 0.00 90 1009.7
20260506080152 76 112 8.0 11.0 0.00 0.00 0.00 89 1009.7
20260506073136 76 128 7.0 13.0 0.00 0.00 0.00 89 1010.1
20260506072632 76 120 8.0 13.0 0.00 0.00 0.00 89 1010.1
20260506072130 76 152 6.0 11.0 0.00 0.00 0.00 89 1010.1
20260506071628 76 119 8.0 11.0 0.00 0.00 0.00 89 1010.4
20260506071125 76 128 8.0 15.0 0.00 0.00 0.00 89 1010.4
20260506070622 76 134 10.0 15.0 0.00 0.00 0.00 89 1010.1
20260506070119 76 125 9.0 15.0 0.00 0.00 0.00 88 1010.4
20260506062056 76 96 10.0 17.0 0.00 0.00 0.00 89 1010.4
20260506061552 76 111 8.0 11.0 0.00 0.00 0.00 89 1010.4
20260506061050 76 118 10.0 12.0 0.00 0.00 0.00 89 1010.1
20260506060548 76 102 9.0 10.0 0.00 0.00 0.00 89 1010.4
20260506051017 77 111 8.0 12.0 0.00 0.00 0.00 88 1010.4
20260506050515 77 108 8.0 12.0 0.00 0.00 0.00 88 1010.4
20260506045005 77 120 10.0 15.0 0.00 0.00 0.00 87 1010.1
20260506044504 77 114 11.0 17.0 0.00 0.00 0.00 87 1010.4
20260506044000 77 107 12.0 16.0 0.00 0.00 0.00 87 1010.4
20260506043457 77 107 11.0 14.0 0.00 0.00 0.00 87 1010.1
20260506042955 78 113 11.0 16.0 0.00 0.00 0.00 87 1010.1
20260506042454 78 112 12.0 14.0 0.00 0.00 0.00 87 1010.1
20260506041951 78 127 9.0 15.0 0.00 0.00 0.00 86 1010.1
20260506041450 78 112 11.0 13.0 0.00 0.00 0.00 86 1010.1
20260506040947 78 113 10.0 12.0 0.00 0.00 0.00 86 1010.1
20260506040444 78 109 14.0 16.0 0.00 0.00 0.00 86 1009.7
20260506035940 78 124 12.0 15.0 0.00 0.00 0.00 85 1009.7
20260506035437 78 106 13.0 16.0 0.00 0.00 0.00 85 1009.7
20260506034934 78 118 13.0 17.0 0.00 0.00 0.00 85 1009.7
20260506034431 78 109 13.0 15.0 0.00 0.00 0.00 85 1009.7
20260506033928 78 112 12.0 14.0 0.00 0.00 0.00 85 1009.7
20260506033426 78 104 14.0 18.0 0.00 0.00 0.00 85 1009.7
20260506032922 78 123 12.0 18.0 0.00 0.00 0.00 84 1009.7
20260506032419 78 107 12.0 14.0 0.00 0.00 0.00 84 1009.7
20260506031916 79 106 15.0 18.0 0.00 0.00 0.00 84 1009.4
20260506031413 79 108 13.0 18.0 0.00 0.00 0.00 84 1009.4
20260506030911 79 111 14.0 16.0 0.00 0.00 0.00 83 1009.4
20260506030409 79 109 13.0 17.0 0.00 0.00 0.00 83 1009.4
20260506025905 79 111 12.0 14.0 0.00 0.00 0.00 83 1009.1
20260506025402 79 112 13.0 15.0 0.00 0.00 0.00 83 1009.1
20260506024859 79 106 12.0 15.0 0.00 0.00 0.00 82 1009.1
20260506024356 80 113 15.0 17.0 0.00 0.00 0.00 82 1008.7
20260506023852 80 110 13.0 18.0 0.00 0.00 0.00 81 1008.7
20260506023349 80 112 12.0 17.0 0.00 0.00 0.00 81 1008.7
20260506022845 80 107 12.0 17.0 0.00 0.00 0.00 80 1008.3
20260506022343 80 108 13.0 15.0 0.00 0.00 0.00 79 1008.3
20260506021841 81 108 18.0 21.0 0.00 0.00 0.00 78 1008.0
20260506021338 81 108 17.0 21.0 0.00 0.00 0.00 77 1008.0
20260506020834 81 106 10.0 14.0 0.00 0.00 0.00 76 1008.0
20260506020332 82 108 11.0 14.0 0.00 0.00 0.00 76 1008.0
20260506015830 82 103 13.0 15.0 0.00 0.00 0.00 75 1008.0
20260506015327 82 106 13.0 15.0 0.00 0.00 0.00 75 1008.0
20260506014824 82 116 12.0 13.0 0.00 0.00 0.00 75 1007.6
20260506014320 82 108 13.0 17.0 0.00 0.00 0.00 75 1008.0
20260506013817 82 102 11.0 13.0 0.00 0.00 0.00 75 1008.0
20260506013314 82 107 11.0 14.0 0.00 0.00 0.00 74 1008.0
20260506012811 82 109 13.0 16.0 0.00 0.00 0.00 74 1008.0
20260506012308 82 111 14.0 16.0 0.00 0.00 0.00 74 1007.6
20260506011805 83 104 13.0 16.0 0.00 0.00 0.00 73 1008.0
20260506011301 83 106 10.0 12.0 0.00 0.00 0.00 73 1008.0
20260506010800 83 107 9.0 11.0 0.00 0.00 0.00 73 1008.0
20260506010257 83 108 10.0 13.0 0.00 0.00 0.00 72 1008.0
20260506005754 83 113 8.0 10.0 0.00 0.00 0.00 72 1008.0
20260506005251 83 108 9.0 11.0 0.00 0.00 0.00 72 1008.0
20260506004746 83 104 7.0 10.0 0.00 0.00 0.00 72 1008.0
20260506004245 83 114 6.0 9.0 0.00 0.00 0.00 72 1007.6
20260506003740 83 112 6.0 8.0 0.00 0.00 0.00 72 1007.6
20260506003237 83 120 7.0 10.0 0.00 0.00 0.00 72 1007.6
20260506002733 84 108 9.0 11.0 0.00 0.00 0.00 72 1007.6
20260506002229 84 115 8.0 9.0 0.00 0.00 0.00 72 1007.6
20260506001725 84 102 9.0 11.0 0.00 0.00 0.00 71 1007.6
20260506001223 84 126 7.0 10.0 0.00 0.00 0.00 71 1007.3
20260506000719 84 102 10.0 12.0 0.00 0.00 0.00 71 1007.6
20260506000219 84 119 7.0 9.0 0.00 0.00 0.00 71 1007.3
20260505235714 84 152 7.0 12.0 0.00 0.00 0.00 71 1007.3
20260505235212 84 110 10.0 13.0 0.00 0.00 0.00 71 1007.3
20260505234708 84 107 14.0 18.0 0.00 0.00 0.00 70 1007.3
20260505234206 84 104 12.0 15.0 0.00 0.00 0.00 70 1007.3
20260505233702 84 107 10.0 14.0 0.00 0.00 0.00 70 1007.3
20260505233200 84 108 11.0 13.0 0.00 0.00 0.00 70 1007.3
20260505232657 84 161 9.0 13.0 0.00 0.00 0.00 69 1007.3
20260505232155 84 103 9.0 12.0 0.00 0.00 0.00 69 1007.3
20260505231651 84 115 7.0 10.0 0.00 0.00 0.00 69 1007.3
20260505231150 84 147 10.0 16.0 0.00 0.00 0.00 69 1007.3
20260505230648 84 133 12.0 18.0 0.00 0.00 0.00 69 1007.3
20260505230144 84 115 13.0 17.0 0.00 0.00 0.00 69 1006.9
20260505225640 84 133 12.0 15.0 0.00 0.00 0.00 69 1006.9
20260505225137 84 142 7.0 13.0 0.00 0.00 0.00 68 1007.3
20260505224633 84 142 4.0 8.0 0.00 0.00 0.00 69 1006.9
20260505224131 84 117 10.0 15.0 0.00 0.00 0.00 68 1006.9
20260505223628 85 128 5.0 11.0 0.00 0.00 0.00 67 1006.9
20260505223124 84 92 10.0 15.0 0.00 0.00 0.00 67 1007.3
20260505222621 84 125 13.0 17.0 0.00 0.00 0.00 68 1006.9
20260505222117 84 128 12.0 21.0 0.00 0.00 0.00 67 1006.9
20260505221614 84 141 9.0 16.0 0.00 0.00 0.00 68 1006.9
20260505221110 85 107 13.0 18.0 0.00 0.00 0.00 67 1007.3
20260505220608 85 107 8.0 15.0 0.00 0.00 0.00 66 1006.9
20260505220106 84 116 13.0 17.0 0.00 0.00 0.00 68 1007.3
20260505215603 84 120 9.0 13.0 0.00 0.00 0.00 68 1007.3
20260505215101 84 112 12.0 17.0 0.00 0.00 0.00 69 1007.3